Location: Latta
(44.3000°N, 77.3397°W)
Time: 05:28:22
(UTC+00:00)

ISS - Visible Passes

Search period start: 02 December 2022 00:00
Search period end: 12 December 2022 00:00
Orbit: 415 x 420 km, 51.6° (Epoch: 01 December)

Date Brightness Start Highest point End Pass type
(mag) Time Alt. Az. Time Alt. Az. Time Alt. Az.
02 Dec -2.7 22:16:29 10° NW 22:19:29 29° NNE 22:22:04 13° ENE visible
02 Dec -1.9 23:53:09 10° WNW 23:55:01 30° WNW 23:55:01 30° WNW visible
03 Dec -3.9 23:05:06 10° WNW 23:08:27 74° NNE 23:09:20 45° ESE visible
04 Dec -3.5 22:17:06 10° NW 22:20:24 50° NNE 22:23:40 10° ESE visible
04 Dec -1.7 23:54:09 10° WNW 23:56:51 26° SW 23:56:51 26° SW visible
05 Dec -2.7 23:05:55 10° WNW 23:09:07 43° SW 23:11:42 14° SSE visible
06 Dec -3.5 22:17:50 10° WNW 22:21:10 73° SSW 22:24:30 10° SE visible
06 Dec -0.3 23:57:05 10° SW 23:57:24 10° SW 23:57:41 10° SW visible
07 Dec -0.8 23:07:22 10° W 23:09:37 17° SW 23:11:51 10° S visible
08 Dec -1.4 22:18:54 10° WNW 22:21:47 27° SW 22:24:41 10° SSE visible
10 Dec 0.1 22:21:34 10° WSW 22:22:15 10° SW 22:22:57 10° SW visible
